Change the Weather History Date:

Tuesday, August 13, 2013

  Actual Average Record
Temperature  
Mean Temperature 61 °F -  
Max Temperature 68 °F 80 °F 98 °F (2002)
Min Temperature 54 °F 53 °F 46 °F (1998)
Degree Days  
Heating Degree Days 4    
Growing Degree Days 11 (Base 50)    
Moisture  
Dew Point 62 °F    
Average Humidity 94    
Maximum Humidity 100    
Minimum Humidity 78    
Precipitation  
Precipitation 1.09 in - - ()
Sea Level Pressure  
Sea Level Pressure 29.77 in    
Wind  
Wind Speed 1 mph (North)    
Max Wind Speed 6 mph    
Max Gust Speed -    
Visibility 10 miles    
Events Rain , Thunderstorm    
Averages and records for this station are not official NWS values.
T = Trace of Precipitation, MM = Missing Value Source: NWS Daily Summary

Daily Weather History Graph

Daily Weather History Graph

Search for Another Location

Airport or City:

Trip Planner

Search our weather history database for the weather conditions in past years. The results will help you decide how hot, cold, wet, or windy it might be!

Date:

Astronomy

Aug. 13, 2013 Rise Set
Actual Time 5:45 AM EDT 7:50 PM EDT
Civil Twilight 5:14 AM EDT 8:22 PM EDT
Nautical Twilight 4:35 AM EDT 9:00 PM EDT
Astronomical Twilight 3:52 AM EDT 9:43 PM EDT
Moon 12:53 PM EDT (8/13) 11:06 PM EDT (8/13)
Length of Visible Light 15h 08m
Length of Day
14h 05m
Waxing Crescent, 41% of the Moon is Illuminated
Aug 13
Waxing Crescent
Aug 14
First Quarter
Aug 20
Full
Aug 28
Last Quarter
Sep 5
New

Hourly Weather History & Observations

Time (EDT) Temp. Dew Point Humidity Pressure Visibility Wind Dir Wind Speed Gust Speed Precip Events Conditions
1:54 AM 57.0 °F 55.9 °F 96% 29.90 in 10.0 mi Calm Calm - N/A   Scattered Clouds
2:54 AM 55.9 °F 54.0 °F 93% 29.89 in 10.0 mi Calm Calm - N/A   Clear
3:54 AM 55.9 °F 54.0 °F 93% 29.88 in 10.0 mi Calm Calm - N/A   Clear
4:54 AM 54.0 °F 53.1 °F 97% 29.88 in 10.0 mi Calm Calm - N/A   Partly Cloudy
5:54 AM 55.0 °F 53.1 °F 93% 29.87 in 10.0 mi Calm Calm - N/A   Clear
6:54 AM 57.0 °F 55.9 °F 96% 29.87 in 10.0 mi Calm Calm - N/A   Clear
7:54 AM 64.0 °F 57.9 °F 80% 29.86 in 10.0 mi Calm Calm - N/A   Clear
8:54 AM 64.9 °F 57.9 °F 78% 29.84 in 10.0 mi Calm Calm - N/A   Overcast
9:54 AM 64.9 °F 57.9 °F 78% 29.83 in 10.0 mi NW 3.5 mph - N/A   Overcast
10:54 AM 63.0 °F 61.0 °F 93% 29.85 in 6.0 mi West 3.5 mph - 0.14 in Rain Heavy Rain
11:40 AM 64.4 °F 60.8 °F 88% 29.84 in 10.0 mi Variable 3.5 mph - 0.21 in   Overcast
11:54 AM 64.0 °F 62.1 °F 93% 29.84 in 10.0 mi Calm Calm - 0.21 in   Overcast
12:54 PM 64.9 °F 64.0 °F 97% 29.83 in 10.0 mi ESE 3.5 mph - 0.02 in Rain Light Rain
1:54 PM 66.0 °F 64.9 °F 96% 29.81 in 10.0 mi SE 3.5 mph - 0.25 in Rain Light Rain
2:54 PM 66.9 °F 64.9 °F 93% 29.79 in 10.0 mi Calm Calm - 0.00 in Rain Light Rain
3:11 PM 66.2 °F 64.4 °F 94% 29.78 in 10.0 mi ESE 3.5 mph - 0.01 in Rain Light Rain
3:54 PM 66.0 °F 64.9 °F 96% 29.77 in 10.0 mi Calm Calm - 0.04 in Rain Light Rain
4:31 PM 66.2 °F 64.4 °F 94% 29.76 in 10.0 mi Calm Calm - 0.01 in   Overcast
4:51 PM 66.2 °F 64.4 °F 94% 29.75 in 10.0 mi Calm Calm - 0.01 in   Overcast
4:54 PM 66.9 °F 64.9 °F 93% 29.76 in 10.0 mi Calm Calm - 0.01 in   Overcast
5:54 PM 68.0 °F 64.9 °F 90% 29.74 in 10.0 mi North - - 0.00 in   Overcast
6:13 PM 68.0 °F 64.4 °F 88% 29.73 in 10.0 mi Calm Calm - N/A   Mostly Cloudy
6:23 PM 68.0 °F 64.4 °F 88% 29.73 in 10.0 mi Calm Calm - N/A   Mostly Cloudy
6:54 PM 66.9 °F 64.9 °F 93% 29.73 in 10.0 mi Calm Calm - N/A   Overcast
7:40 PM 66.2 °F 64.4 °F 94% 29.72 in 10.0 mi Calm Calm - 0.00 in Rain Light Rain
7:44 PM 66.2 °F 64.4 °F 94% 29.72 in 10.0 mi Calm Calm - 0.00 in Rain Light Rain
7:54 PM 66.0 °F 64.9 °F 96% 29.72 in 10.0 mi Calm Calm - 0.01 in Rain Light Rain
8:02 PM 66.2 °F 64.4 °F 94% 29.72 in 10.0 mi Calm Calm - 0.00 in Rain Light Rain
8:18 PM 66.2 °F 64.4 °F 94% 29.72 in 10.0 mi Calm Calm - 0.02 in Rain Rain
8:54 PM 64.9 °F 64.0 °F 97% 29.72 in 10.0 mi Calm Calm - 0.07 in Rain Light Rain
9:18 PM 64.4 °F 64.4 °F 100% 29.72 in 10.0 mi Calm Calm - 0.01 in Rain Light Rain
9:54 PM 64.9 °F 64.0 °F 97% 29.70 in 10.0 mi Calm Calm - 0.02 in Rain Light Rain
10:01 PM 64.4 °F 64.4 °F 100% 29.70 in 10.0 mi Calm Calm - 0.00 in Rain Light Rain
10:08 PM 64.4 °F 64.4 °F 100% 29.70 in 10.0 mi Calm Calm - 0.00 in Rain Light Rain
10:18 PM 64.4 °F 64.4 °F 100% 29.71 in 10.0 mi Calm Calm - 0.00 in Rain Light Rain
10:29 PM 64.4 °F 64.4 °F 100% 29.71 in 10.0 mi NW 5.8 mph - 0.00 in   Overcast
10:34 PM 64.4 °F 64.4 °F 100% 29.71 in 10.0 mi NNW 5.8 mph - 0.00 in Thunderstorm Thunderstorm
10:51 PM 64.4 °F 62.6 °F 94% 29.71 in 10.0 mi Calm Calm - 0.07 in Rain Rain
10:54 PM 64.0 °F 63.0 °F 96% 29.71 in 10.0 mi NE 3.5 mph - 0.09 in Rain Rain
11:03 PM 64.4 °F 62.6 °F 94% 29.71 in 8.0 mi Calm Calm - 0.08 in Rain Heavy Rain
11:18 PM 64.4 °F 64.4 °F 100% 29.71 in 10.0 mi Calm Calm - 0.21 in Rain Rain
11:43 PM 64.4 °F 62.6 °F 94% 29.71 in 10.0 mi Calm Calm - 0.23 in   Overcast
11:54 PM 64.0 °F 63.0 °F 96% 29.70 in 10.0 mi Calm Calm - 0.23 in   Overcast